Location: Bannatyne
(13.0833°N, 59.5333°W)
Time: 14:14:26
(UTC+00:00)

Transit 4A - Pass Details

Date: 25 January 2021
Orbit: 866 x 978 km, 66.8° (Epoch: 05 March)

Event Time Altitude Azimuth Distance (km) Brightness Sun altitude
Rises 22:52:29 0° 241° (WSW) 3,640 12.7 -13.9°
Reaches altitude 10° 22:56:19 10° 264° (W) 2,708 11.7 -14.8°
Maximum altitude 22:59:41 15° 296° (WNW) 2,382 10.7 -15.6°
Drops below altitude 10° 23:03:05 10° 329° (NNW) 2,720 10.5 -16.4°
Sets 23:06:59 0° 352° (N) 3,666 10.9 -17.3°
